Vertical_Velocity
-4 0 3 1 5 -1 7 -3 12 -2 5 1 0 9 3 1 2 2 1 -6 -3 1 0 -4 2 -2 -1 -2 3 -3 -0 -3
-8 -3 -5 7 -5 -13 -4 -13 22 3 33 2 -2 6 -5 -6 5 7 -10 -5 -3 -1 2 1 1 -1 -1 0 -3 0 -1 -2
-9 -8 -6 12 10 -7 4 3 -13 -8 24 -0 2 -3 0 -1 -4 2 -4 -0 -4 -2 -3 -3 0 4 0 -0 -0 -4 3 -2
-8 -6 -8 -8 -2 -6 4 -6 7 -12 4 36 -5 17 9 14 4 10 -2 -2 6 -5 1 -2 -1 -1 -2 2 -0 -1 -1 -0
-0 -3 -4 -5 -3 -11 -11 -9 -3 -6 -5 33 -10 1 -6 2 -5 0 6 1 -2 1 -1 1 -1 -2 -3 1 3 1 -1 -4
-3 -1 -3 -2 1 -3 -5 -2 4 -8 -11 -6 17 -3 8 -1 -0 -0 4 1 -2 4 1 1 -0 -3 0 -1 3 -2 -0 -1
2 1 -1 -1 -1 3 0 2 2 -2 -1 -4 26 -15 26 11 2 11 1 7 5 4 2 -4 4 -2 -3 -0 1 0 2 2
-2 -3 -5 -9 -2 3 -1 3 8 5 -9 10 -3 12 31 22 14 30 -2 -4 -3 3 13 -0 9 4 -2 -1 -1 2 3 -2
5 1 -1 -8 5 6 1 8 22 1 -2 2 8 -1 12 24 21 -62 41 -7 8 -6 2 -1 5 5 2 3 -2 1 1 1
3 -4 -5 -1 5 -1 13 -1 27 7 -4 -6 6 4 8 -10 54 -80 -6 9 12 2 4 -4 4 8 4 -2 0 -2 -3 2
4 -11 -0 -0 -4 11 16 -3 10 1 4 9 -13 -5 8 10 -10 2 7 7 -2 4 1 4 1 7 6 3 4 -1 -6 -3
5 -6 -6 13 11 7 20 24 15 17 -8 -9 4 6 -8 51 2 -20 2 -2 1 2 5 3 0 -1 8 1 6 9 1 12
3 -3 2 11 3 6 5 18 7 2 -20 -3 -29 1 -4 6 -11 1 2 -0 -1 2 3 1 1 14 7 2 1 2 4 0
-3 -0 -4 5 -3 -0 -12 -6 -6 8 4 18 8 -2 9 8 -2 0 3 4 -1 9 3 1 4 6 1 2 0 3 -3 5
3 -6 1 3 3 7 8 13 12 -11 -2 -13 16 5 6 5 -3 12 7 2 5 -5 0 1 5 0 1 -1 0 4 0 5
-2 -1 1 4 -6 -5 3 -0 4 12 1 6 4 6 2 7 -14 12 6 4 2 -1 4 4 -1 -2 -4 -2 2 3 2 4
0 5 5 5 4 -0 6 4 3 -9 -3 -5 4 7 -3 7 4 -1 -5 -6 -2 1 -3 -2 -2 -2 1 -0 -0 1 1 -2
-2 -1 -4 -5 5 6 1 -1 3 -1 1 6 3 -8 -7 -16 -10 2 2 -5 1 -1 -3 0 -1 1 0 -0 -0 -3 2 -3
0 -1 -1 -4 -3 -4 3 7 -3 -7 -7 -7 -12 -12 -9 2 5 2 -2 -4 1 -1 -1 1 2 -5 -3 -1 -1 -3 -1 1
Height
1448 1444 1441 1439 1438 1438 1437 1438 1439 1440 1438 1440 1446 1448 1452 1454 1457 1461 1461 1468 1474 1477 1480 1482 1486 1488 1491 1496 1499 1503 1506 1509
1451 1445 1439 1434 1433 1433 1431 1431 1430 1431 1433 1432 1435 1439 1442 1446 1452 1456 1454 1459 1465 1470 1475 1477 1480 1483 1485 1490 1494 1499 1502 1506
1449 1444 1439 1434 1427 1424 1423 1422 1422 1422 1426 1425 1428 1433 1436 1439 1445 1448 1450 1450 1455 1462 1467 1472 1476 1480 1481 1484 1488 1493 1498 1501
1447 1441 1436 1431 1425 1419 1417 1416 1417 1416 1415 1419 1420 1426 1431 1433 1436 1440 1442 1445 1448 1455 1460 1463 1469 1474 1478 1480 1483 1486 1491 1496
1446 1438 1432 1428 1421 1415 1412 1409 1411 1409 1402 1402 1404 1411 1416 1420 1427 1434 1437 1439 1440 1446 1453 1456 1460 1468 1472 1476 1479 1480 1484 1487
1444 1435 1428 1423 1417 1410 1405 1403 1401 1396 1393 1393 1394 1404 1410 1413 1420 1426 1431 1433 1434 1440 1445 1451 1454 1459 1465 1471 1473 1475 1477 1481
1444 1435 1426 1419 1412 1406 1400 1395 1391 1387 1384 1384 1387 1395 1402 1408 1412 1417 1425 1428 1429 1437 1438 1445 1449 1452 1457 1463 1468 1471 1473 1475
1443 1432 1422 1415 1410 1402 1395 1390 1385 1379 1380 1377 1379 1389 1396 1402 1406 1414 1415 1424 1425 1436 1437 1438 1443 1444 1450 1456 1461 1464 1467 1469
1442 1431 1422 1417 1410 1400 1394 1385 1381 1372 1377 1374 1376 1382 1388 1392 1394 1378 1400 1420 1419 1430 1434 1436 1440 1439 1444 1449 1454 1459 1462 1464
1443 1430 1425 1418 1407 1392 1392 1386 1378 1374 1375 1377 1377 1380 1384 1387 1371 1404 1412 1416 1418 1426 1426 1431 1434 1435 1438 1444 1449 1453 1459 1461
1444 1434 1429 1418 1397 1398 1390 1388 1374 1374 1376 1379 1383 1383 1385 1386 1385 1402 1408 1415 1422 1422 1423 1426 1428 1429 1433 1435 1441 1445 1447 1454
1448 1435 1432 1422 1408 1392 1391 1384 1377 1377 1386 1389 1389 1390 1390 1387 1397 1397 1413 1415 1417 1417 1420 1421 1422 1423 1425 1429 1436 1437 1442 1444
1454 1445 1432 1418 1408 1399 1390 1385 1384 1385 1388 1384 1384 1392 1389 1381 1406 1404 1410 1411 1412 1414 1413 1416 1419 1421 1419 1425 1430 1432 1434 1436
1455 1447 1437 1427 1417 1411 1401 1400 1391 1388 1395 1398 1396 1395 1402 1405 1403 1408 1408 1408 1410 1407 1406 1413 1412 1408 1414 1420 1423 1426 1429 1431
1459 1452 1446 1436 1427 1418 1415 1408 1405 1413 1416 1413 1406 1401 1399 1392 1404 1405 1401 1404 1404 1402 1407 1408 1406 1406 1412 1417 1419 1420 1422 1424
1465 1458 1452 1445 1438 1430 1423 1420 1421 1422 1417 1411 1399 1399 1397 1397 1403 1402 1396 1399 1400 1404 1407 1403 1403 1408 1412 1413 1414 1414 1415 1415
1471 1464 1456 1450 1448 1445 1437 1433 1427 1425 1418 1408 1405 1398 1403 1406 1405 1403 1404 1409 1409 1409 1406 1407 1409 1410 1409 1409 1409 1408 1408 1408
1477 1472 1465 1461 1455 1451 1446 1440 1436 1427 1421 1417 1411 1410 1412 1413 1421 1420 1415 1415 1417 1414 1414 1413 1411 1409 1408 1407 1406 1405 1405 1404
1482 1477 1472 1468 1463 1459 1454 1447 1441 1436 1429 1425 1425 1430 1433 1434 1429 1424 1424 1425 1423 1420 1419 1417 1414 1412 1412 1409 1407 1408 1406 1403